Weather History for Cartersville, GA

Change the Weather History Date:

Friday, November 15, 2013

  Actual Average Record
Temperature  
Mean Temperature 41 °F 52 °F  
Max Temperature 50 °F 64 °F 77 °F (2005)
Min Temperature 32 °F 39 °F 28 °F (2000)
Degree Days  
Heating Degree Days 24 14  
Month to date heating degree days 229 173  
Since 1 July heating degree days 370 365  
Moisture  
Dew Point 39 °F    
Average Humidity 69    
Maximum Humidity 93    
Minimum Humidity 45    
Precipitation  
Precipitation 0.10 in 0.14 in 2.88 in (2006)
Month to date precipitation 0.50 1.75  
Snow  
Snow 0.00 in - - ()
Month to date snowfall 0.0  
Since 1 July snowfall 0.0  
Since 1 September snowfall 0.0  
Snow Depth 0.00 in    
Sea Level Pressure  
Sea Level Pressure 30.24 in    
Wind  
Wind Speed 3 mph (East)    
Max Wind Speed 10 mph    
Max Gust Speed 16 mph    
Visibility 8 miles    
Events Rain    
T = Trace of Precipitation, MM = Missing Value Source: NWS Daily Summary

Daily Weather History Graph

Daily Weather History Graph

Search for Another Location

Airport:

Trip Planner

Search our weather history database for the weather conditions in past years. The results will help you decide how hot, cold, wet, or windy it might be!

Date:

Astronomy

Nov. 15, 2013 Rise Set
Actual Time 7:12 AM EST 5:35 PM EST
Civil Twilight 6:45 AM EST 6:02 PM EST
Nautical Twilight 6:15 AM EST 6:32 PM EST
Astronomical Twilight 5:45 AM EST 7:01 PM EST
Moon 4:28 PM EST (11/15) 5:12 AM EST (11/15)
Length of Visible Light 11h 16m
Length of Day
10h 23m
Waxing Gibbous, 96% of the Moon is Illuminated
Nov 15
Waxing Gibbous
Nov 17
Full
Nov 25
Last Quarter
Dec 2
New
Dec 9
First Quarter

Hourly Weather History & Observations

Time (EST) Temp. Windchill Dew Point Humidity Pressure Visibility Wind Dir Wind Speed Gust Speed Precip Events Conditions
12:53 AM 33.1 °F - 26.1 °F 75% 30.30 in 10.0 mi Calm Calm - N/A   Clear
1:53 AM 35.1 °F - 27.0 °F 72% 30.29 in 10.0 mi Calm Calm - N/A   Clear
2:53 AM 36.0 °F - 28.9 °F 76% 30.29 in 10.0 mi Calm Calm - N/A   Partly Cloudy
3:53 AM 41.0 °F 39.0 °F 27.0 °F 57% 30.26 in 10.0 mi ENE 3.5 mph - N/A   Overcast
4:53 AM 43.0 °F 40.3 °F 23.0 °F 45% 30.25 in 10.0 mi East 4.6 mph - N/A   Mostly Cloudy
5:53 AM 44.1 °F - 25.0 °F 47% 30.27 in 10.0 mi Calm Calm - N/A   Overcast
6:36 AM 44.6 °F - 26.6 °F 49% 30.28 in 10.0 mi Calm Calm - N/A   Overcast
6:53 AM 45.0 °F 43.5 °F 27.0 °F 49% 30.29 in 9.0 mi SSE 3.5 mph - N/A   Overcast
7:03 AM 42.8 °F - 30.2 °F 61% 30.29 in 4.0 mi Calm Calm - 0.00 in Rain Light Rain
7:39 AM 41.0 °F - 35.6 °F 81% 30.30 in 10.0 mi Calm Calm - 0.00 in   Overcast
7:53 AM 41.0 °F - 37.0 °F 86% 30.30 in 9.0 mi Calm Calm - 0.00 in   Overcast
8:01 AM 41.0 °F - 37.4 °F 87% 30.30 in 9.0 mi Calm Calm - N/A   Overcast
8:46 AM 42.8 °F 41.1 °F 37.4 °F 81% 30.30 in 10.0 mi East 3.5 mph - N/A   Overcast
8:53 AM 43.0 °F 40.3 °F 37.9 °F 82% 30.29 in 10.0 mi East 4.6 mph - N/A   Overcast
9:14 AM 44.6 °F 42.2 °F 39.2 °F 81% 30.29 in 10.0 mi East 4.6 mph - N/A   Overcast
9:39 AM 44.6 °F 41.4 °F 39.2 °F 81% 30.29 in 10.0 mi Variable 5.8 mph - N/A   Overcast
9:53 AM 45.0 °F 41.2 °F 37.9 °F 76% 30.29 in 10.0 mi East 6.9 mph - N/A   Overcast
10:53 AM 48.0 °F - 37.0 °F 66% 30.29 in 10.0 mi East 6.9 mph - N/A   Overcast
11:53 AM 48.9 °F - 39.9 °F 71% 30.25 in 10.0 mi East 3.5 mph - N/A   Overcast
12:13 PM 50.0 °F - 41.0 °F 71% 30.25 in 10.0 mi East 8.1 mph - N/A   Overcast
12:44 PM 48.2 °F - 44.6 °F 87% 30.23 in 8.0 mi East 3.5 mph - 0.03 in   Overcast
12:53 PM 46.9 °F - 44.1 °F 90% 30.22 in 6.0 mi ENE 6.9 mph - 0.03 in   Overcast
1:03 PM 48.2 °F - 44.6 °F 87% 30.21 in 6.0 mi East 5.8 mph - N/A   Overcast
1:14 PM 48.2 °F - 44.6 °F 87% 30.21 in - North - - N/A   Unknown
1:53 PM 48.0 °F - 44.1 °F 86% 30.18 in 9.0 mi Variable 6.9 mph - N/A   Unknown
2:08 PM 48.2 °F - 44.6 °F 87% 30.19 in 10.0 mi East 4.6 mph - N/A   Overcast
2:42 PM 48.2 °F - 44.6 °F 87% 30.19 in - North - - N/A   Unknown
2:53 PM 48.9 °F - 44.1 °F 83% 30.19 in 9.0 mi Calm Calm - N/A   Unknown
3:53 PM 48.9 °F - 45.0 °F 86% 30.18 in 7.0 mi North - - N/A Rain Light Rain
4:53 PM 48.0 °F - 46.0 °F 93% 30.19 in 5.0 mi Calm Calm - N/A Rain Light Rain
5:53 PM 48.0 °F - 46.0 °F 93% 30.18 in 7.0 mi Calm Calm - 0.01 in   Overcast
6:53 PM 48.0 °F - 46.0 °F 93% 30.17 in 5.0 mi ESE 6.9 mph - 0.01 in Rain Light Rain
7:48 PM 48.2 °F - 46.4 °F 93% 30.17 in 7.0 mi Variable 3.5 mph - 0.01 in   Partly Cloudy
7:53 PM 48.0 °F - 46.0 °F 93% 30.17 in 7.0 mi ENE 4.6 mph - 0.01 in   Partly Cloudy
8:53 PM 48.0 °F - 46.0 °F 93% 30.17 in 6.0 mi East 3.5 mph - N/A   Mostly Cloudy
9:53 PM 48.0 °F - 46.0 °F 93% 30.18 in 6.0 mi East 3.5 mph - N/A   Overcast
10:12 PM 48.2 °F - 46.4 °F 93% 30.19 in 5.0 mi Calm Calm - N/A   Overcast
10:53 PM 48.0 °F - 46.0 °F 93% 30.19 in 5.0 mi East 3.5 mph - N/A   Overcast
11:53 PM 48.9 °F - 46.9 °F 93% 30.19 in 5.0 mi East 3.5 mph - N/A   Overcast